Location: Newark
(25.4800°N, 85.7200°E)
Time: 04:02:00
(UTC+00:00)

Explorer 11/Cluster Stage 4 - Pass Details

Date: 21 August 2019
Orbit: 467 x 1260 km, 28.8° (Epoch: 15 September)

Event Time Altitude Azimuth Distance (km) Brightness Sun altitude
Rises 10:16:26 0° 284° (WNW) 3,951 11.2 33.0°
Reaches altitude 10° 10:19:28 10° 283° (WNW) 2,884 10.9 32.3°
Maximum altitude 10:26:27 70° 201° (SSW) 957 7.7 30.7°
Drops below altitude 10° 10:31:59 10° 118° (ESE) 2,307 8.6 29.5°
Sets 10:34:12 0° 115° (ESE) 3,115 9.2 29.0°
